Regional Weather Roundup
Issued by NWS

Home | Current Version | Previous Version | Graphics & Text | Print | Product List | Glossary On
Versions: 1 2 3 4 5 6 7 8 9 10 11 12 13 14 15 16 17 18 19 20 21 22 23 24 25 26 27 28 29 30 31 32 33 34 35 36 37 38 39 40 41 42 43 44 45 46 47 48 49 50
447
ASUS44 KJAN 151003
RWRMS

MISSISSIPPI HOURLY WEATHER ROUNDUP
NATIONAL WEATHER SERVICE JACKSON MS
500 AM CDT MON SEP 15 2014

NOTE: "FAIR: INDICATES FEW OR NO CLOUDS BELOW 12,000 FEET WITH NO
SIGNIFICANT WEATHER AND/OR OBSTRUCTIONS TO VISIBILITY.

MSZ001>002-007>008-010>013-018>021-025>028-034>036-151100-
NORTHWEST MISSISSIPPI

CITY           SKY/WX    TMP DP  RH WIND       PRES   REMARKS
CLARKSDALE     FAIR      63  63 100 CALM      30.15S
CLEVELAND      FAIR      64  63  96 NE3       30.13S
GREENWOOD      PTCLDY    65  62  90 NE3       30.13S
GREENVILLE     PTCLDY    64  61  90 CALM      30.13S
GRENADA        FAIR      63  61  94 CALM      30.14S
OLIVE BRANCH   CLEAR     63  63 100 CALM      30.16S
OXFORD         FAIR      61  59  94 CALM      30.17S
TUNICA         PTSUNNY   61  61 100 CALM      30.16S
$$

MSZ003>006-009-014>017-022>024-029>033-037>039-151100-
NORTHEAST MISSISSIPPI

CITY           SKY/WX    TMP DP  RH WIND       PRES   REMARKS
COLUMBUS AFB   PTCLDY    65  62  92 NW2       30.13S
CORINTH          N/A     59  57  94 CALM      30.16S
GOLDN TRIANGLE CLEAR     64  59  82 N3        30.13S
STARKVILLE     FAIR      64  61  88 CALM      30.13S
TUPELO         MOCLDY    63  60  90 NE6       30.14S
$$

MSZ040-058-151100-
CENTRAL MISSISSIPPI

CITY           SKY/WX    TMP DP  RH WIND       PRES   REMARKS
JACKSON INTL   CLEAR     70  66  87 CALM      30.11S
JACKSON HAWKNS CLEAR     70  67  90 CALM      30.12S
MERIDIAN KEY   CLEAR     68  65  90 N6        30.11S
MERIDIAN NAS   CLEAR     67  64  90 CALM      30.12S
RAYMOND        FAIR      66  63  88 CALM      30.12S HAZE
VICKSBURG      CLEAR     69  66  90 N3        30.12S
$$

MSZ059>079-151100-
SOUTH MISSISSIPPI

CITY           SKY/WX    TMP DP  RH WIND       PRES   REMARKS
BROOKHAVEN     FAIR      70  70 100 CALM      30.12F FOG
HATTIESBURG    CLEAR     73  71  93 CALM      30.10S
MCCOMB         CLEAR     73  69  87 N5        30.10S
NATCHEZ        CLEAR     68  66  94 CALM      30.11S
PINE BELT      CLEAR    N/A N/A N/A NE3       30.11S
$$

MSZ080>082-151100-
COASTAL MISSISSIPPI

CITY           SKY/WX    TMP DP  RH WIND       PRES   REMARKS
BILOXI         CLEAR     76  73  92 NE6       30.07R
PASCAGOULA     CLEAR     73  72  96 CALM      30.08R
GULFPORT       CLEAR     76  73  91 NE5       30.07R
$$



USA.gov is the U.S. government's official web portal to all federal, state and local government web resources and services.